TimeCDT,TemperatureF,Dew PointF,Humidity,Sea Level PressureIn,VisibilityMPH,Wind Direction,Wind SpeedMPH,Gust SpeedMPH,PrecipitationIn,Events,Conditions,WindDirDegrees,DateUTC
12:15 AM,62.6,39.2,42,29.54,10.0,WNW,6.9,-,N/A,,Clear,290,2013-05-15 05:15:00
12:35 AM,60.8,37.4,42,29.55,10.0,West,5.8,-,N/A,,Clear,280,2013-05-15 05:35:00
12:55 AM,59.0,37.4,45,29.56,10.0,NW,6.9,-,N/A,,Clear,310,2013-05-15 05:55:00
1:15 AM,62.6,37.4,39,29.58,10.0,WNW,11.5,18.4,N/A,,Clear,300,2013-05-15 06:15:00
1:35 AM,62.6,41.0,45,29.58,10.0,WNW,16.1,24.2,N/A,,Clear,300,2013-05-15 06:35:00
1:55 AM,62.6,41.0,45,29.60,10.0,WNW,13.8,19.6,N/A,,Clear,300,2013-05-15 06:55:00
2:15 AM,60.8,41.0,48,29.61,10.0,WNW,11.5,16.1,N/A,,Clear,300,2013-05-15 07:15:00
2:35 AM,60.8,41.0,48,29.61,10.0,WNW,10.4,-,N/A,,Clear,300,2013-05-15 07:35:00
2:55 AM,59.0,42.8,55,29.62,10.0,WNW,9.2,-,N/A,,Clear,290,2013-05-15 07:55:00
3:15 AM,59.0,42.8,55,29.63,10.0,WNW,11.5,17.3,N/A,,Clear,290,2013-05-15 08:15:00
3:35 AM,59.0,42.8,55,29.64,10.0,WNW,10.4,17.3,N/A,,Clear,290,2013-05-15 08:35:00
3:55 AM,59.0,42.8,55,29.65,10.0,WNW,16.1,21.9,N/A,,Clear,300,2013-05-15 08:55:00
4:15 AM,59.0,42.8,55,29.66,10.0,WNW,16.1,25.3,N/A,,Clear,300,2013-05-15 09:15:00
4:35 AM,57.2,44.6,63,29.68,10.0,NW,15.0,27.6,N/A,,Clear,310,2013-05-15 09:35:00
4:55 AM,55.4,44.6,67,29.69,10.0,WNW,10.4,21.9,N/A,,Clear,300,2013-05-15 09:55:00
5:15 AM,55.4,44.6,67,29.70,10.0,WNW,13.8,18.4,N/A,,Clear,300,2013-05-15 10:15:00
5:35 AM,53.6,42.8,67,29.71,10.0,NW,9.2,-,N/A,,Clear,310,2013-05-15 10:35:00
5:55 AM,53.6,42.8,67,29.72,10.0,NW,10.4,-,N/A,,Clear,310,2013-05-15 10:55:00
6:15 AM,53.6,42.8,67,29.73,10.0,NW,10.4,-,N/A,,Clear,310,2013-05-15 11:15:00
6:35 AM,53.6,42.8,67,29.75,10.0,NW,8.1,16.1,N/A,,Clear,310,2013-05-15 11:35:00
6:55 AM,55.4,42.8,63,29.76,10.0,NW,11.5,-,N/A,,Clear,310,2013-05-15 11:55:00
7:15 AM,55.4,42.8,63,29.77,10.0,NW,8.1,-,N/A,,Clear,310,2013-05-15 12:15:00
7:35 AM,55.4,41.0,58,29.78,10.0,NW,10.4,-,N/A,,Clear,310,2013-05-15 12:35:00
7:55 AM,57.2,41.0,55,29.79,10.0,WNW,10.4,19.6,N/A,,Clear,300,2013-05-15 12:55:00
8:15 AM,59.0,39.2,48,29.81,10.0,NW,11.5,19.6,N/A,,Clear,310,2013-05-15 13:15:00
8:35 AM,60.8,37.4,42,29.83,10.0,NW,12.7,23.0,N/A,,Clear,320,2013-05-15 13:35:00
8:55 AM,60.8,37.4,42,29.83,10.0,NW,11.5,19.6,N/A,,Clear,320,2013-05-15 13:55:00
9:15 AM,62.6,37.4,39,29.83,10.0,NW,10.4,19.6,N/A,,Clear,310,2013-05-15 14:15:00
9:35 AM,62.6,35.6,37,29.84,10.0,WNW,18.4,25.3,N/A,,Clear,300,2013-05-15 14:35:00
9:55 AM,64.4,35.6,34,29.85,10.0,WNW,13.8,23.0,N/A,,Clear,300,2013-05-15 14:55:00
10:15 AM,64.4,35.6,34,29.85,10.0,WNW,15.0,21.9,N/A,,Clear,300,2013-05-15 15:15:00
10:35 AM,64.4,33.8,32,29.85,10.0,NNW,12.7,18.4,N/A,,Clear,330,2013-05-15 15:35:00
10:55 AM,68.0,33.8,28,29.85,10.0,NW,15.0,25.3,N/A,,Clear,310,2013-05-15 15:55:00
11:15 AM,68.0,32.0,26,29.85,10.0,NW,12.7,23.0,N/A,,Clear,310,2013-05-15 16:15:00
11:35 AM,68.0,32.0,26,29.84,10.0,NNW,15.0,20.7,N/A,,Clear,330,2013-05-15 16:35:00
11:55 AM,69.8,32.0,25,29.83,10.0,NW,13.8,21.9,N/A,,Clear,310,2013-05-15 16:55:00
12:15 PM,69.8,32.0,25,29.83,10.0,NW,13.8,21.9,N/A,,Clear,310,2013-05-15 17:15:00
12:35 PM,69.8,32.0,25,29.82,10.0,NW,9.2,26.5,N/A,,Clear,320,2013-05-15 17:35:00
12:55 PM,71.6,32.0,23,29.82,10.0,NW,12.7,16.1,N/A,,Clear,320,2013-05-15 17:55:00
1:15 PM,71.6,32.0,23,29.81,10.0,NNW,10.4,18.4,N/A,,Clear,330,2013-05-15 18:15:00
1:35 PM,71.6,32.0,23,29.81,10.0,WNW,12.7,20.7,N/A,,Clear,300,2013-05-15 18:35:00
1:55 PM,71.6,33.8,25,29.81,10.0,NW,9.2,16.1,N/A,,Clear,310,2013-05-15 18:55:00
2:15 PM,71.6,33.8,25,29.81,10.0,WNW,12.7,18.4,N/A,,Clear,290,2013-05-15 19:15:00
2:35 PM,73.4,32.0,22,29.80,10.0,NNW,8.1,20.7,N/A,,Scattered Clouds,340,2013-05-15 19:35:00
2:55 PM,73.4,33.8,23,29.80,10.0,NW,11.5,17.3,N/A,,Scattered Clouds,310,2013-05-15 19:55:00
3:15 PM,73.4,33.8,23,29.80,10.0,West,11.5,18.4,N/A,,Scattered Clouds,280,2013-05-15 20:15:00
3:35 PM,73.4,33.8,23,29.79,10.0,West,11.5,21.9,N/A,,Scattered Clouds,280,2013-05-15 20:35:00
3:55 PM,73.4,32.0,22,29.79,10.0,West,12.7,20.7,N/A,,Scattered Clouds,270,2013-05-15 20:55:00
4:15 PM,71.6,33.8,25,29.78,10.0,NW,6.9,-,N/A,,Clear,320,2013-05-15 21:15:00
4:35 PM,73.4,33.8,23,29.78,10.0,West,8.1,19.6,N/A,,Clear,260,2013-05-15 21:35:00
4:55 PM,75.2,32.0,21,29.78,10.0,WNW,9.2,-,N/A,,Scattered Clouds,300,2013-05-15 21:55:00
5:15 PM,73.4,32.0,22,29.78,10.0,West,12.7,17.3,N/A,,Scattered Clouds,260,2013-05-15 22:15:00
5:35 PM,73.4,32.0,22,29.79,10.0,NW,9.2,18.4,N/A,,Scattered Clouds,310,2013-05-15 22:35:00
5:55 PM,71.6,32.0,23,29.78,10.0,NW,11.5,17.3,N/A,,Scattered Clouds,310,2013-05-15 22:55:00
6:15 PM,71.6,32.0,23,29.78,10.0,WNW,11.5,18.4,N/A,,Scattered Clouds,290,2013-05-15 23:15:00
6:35 PM,73.4,32.0,22,29.78,10.0,WNW,11.5,-,N/A,,Scattered Clouds,300,2013-05-15 23:35:00
6:55 PM,71.6,32.0,23,29.79,10.0,NW,9.2,19.6,N/A,,Scattered Clouds,310,2013-05-15 23:55:00
7:15 PM,69.8,32.0,25,29.79,10.0,WNW,5.8,-,N/A,,Scattered Clouds,290,2013-05-16 00:15:00
7:35 PM,69.8,32.0,25,29.79,10.0,NW,6.9,-,N/A,,Scattered Clouds,310,2013-05-16 00:35:00
7:55 PM,69.8,32.0,25,29.80,10.0,WNW,3.5,-,N/A,,Clear,300,2013-05-16 00:55:00
8:15 PM,64.4,33.8,32,29.80,10.0,Calm,Calm,-,N/A,,Clear,0,2013-05-16 01:15:00
8:35 PM,59.0,37.4,45,29.80,10.0,Calm,Calm,-,N/A,,Clear,0,2013-05-16 01:35:00
8:55 PM,57.2,37.4,48,29.81,10.0,Calm,Calm,-,N/A,,Scattered Clouds,0,2013-05-16 01:55:00
9:15 PM,53.6,39.2,58,29.82,10.0,Calm,Calm,-,N/A,,Clear,0,2013-05-16 02:15:00
9:35 PM,51.8,37.4,58,29.82,10.0,Calm,Calm,-,N/A,,Scattered Clouds,0,2013-05-16 02:35:00
9:55 PM,50.0,37.4,62,29.83,10.0,Calm,Calm,-,N/A,,Scattered Clouds,0,2013-05-16 02:55:00
10:15 PM,53.6,37.4,54,29.83,10.0,NNW,3.5,-,N/A,,Clear,340,2013-05-16 03:15:00
10:35 PM,55.4,35.6,47,29.83,10.0,Calm,Calm,-,N/A,,Clear,0,2013-05-16 03:35:00
10:55 PM,53.6,35.6,51,29.84,10.0,Calm,Calm,-,N/A,,Clear,0,2013-05-16 03:55:00
11:15 PM,51.8,37.4,58,29.84,10.0,Calm,Calm,-,N/A,,Clear,0,2013-05-16 04:15:00
11:55 PM,46.4,37.4,71,29.85,10.0,Calm,Calm,-,N/A,,Mostly Cloudy,0,2013-05-16 04:55:00